Location: Cz?stochówka
(50.8142°N, 19.0915°E)
Time: 10:54:18
(UTC+00:00)

Cosmos 540 Rocket - Pass Details

Date: 13 January 2026
Orbit: 736 x 747 km, 74.1° (Epoch: 10 February)

Event Time Altitude Azimuth Distance (km) Brightness Sun altitude
Exits shadow 05:01:33 - 341° (NNW) 2,579 5.9 -15.1°
Reaches altitude 10° 05:02:25 10° 343° (NNW) 2,253 5.6 -14.9°
Maximum altitude 05:07:23 52° 60° (ENE) 921 4.2 -14.2°
Drops below altitude 10° 05:12:19 10° 137° (SE) 2,241 6.9 -13.4°
Sets 05:14:44 0° 142° (SE) 3,160 7.7 -13.1°
